Regional Weather Roundup
Issued by NWS Sterling, VA

Home | Current Version | Previous Version | Graphics & Text | Print | Product List | Glossary On
Versions: 1 2 3 4 5 6 7 8 9 10 11 12 13 14 15 16 17 18 19 20 21 22 23 24 25 26 27 28 29 30 31 32 33 34 35 36 37 38 39 40 41 42 43 44 45 46 47 48 49 50
356
ASUS41 KLWX 171911
RWRLWX

REGIONAL WEATHER ROUNDUP
NATIONAL WEATHER SERVICE BALTIMORE MD/WASHINGTON DC
200 PM EST WED JAN 17 2018

Note: "FAIR" indicates few or no clouds below 12,000 feet
with no significant weather and/or obstructions to visibility.
 TC=TEMPERATURE CELSIUS

 * =Non NWS site. Station does not report precipitation (e.g. rain,
    snow, etc.), thunder, or fog.

DCZ001-MDZ009-015-VAZ040>042-051-053>054-172000-
WASHINGTON METRO

CITY           SKY/WX    TMP DP  RH WIND       PRES   REMARKS
WASHINGTON NAT CLOUDY    26  10  50 N18       30.35F WCI  13
DULLES         PTSUNNY   22   8  55 N13G24    30.35F WCI  10
ANDREWS AFB    FAIR      24   8  50 NW17      30.31F WCI  11
FT BELVOIR     FAIR      24   7  47 NW10G23   30.35F WCI  14
COLLEGE PARK*  FAIR      24   8  49 NW12      30.34F WCI  13
LEESBURG*      FAIR      25  10  54 N14G22    30.36F WCI  13
MANASSAS*      PTSUNNY   24  10  55 N18       30.36F WCI  10
GAITHERSBURG*  FAIR      24   9  52 N9        30.32F WCI  14

$$

MDZ006>007-011-014-172000-
BALTIMORE METRO

CITY           SKY/WX    TMP DP  RH WIND       PRES   REMARKS
BWI AIRPORT    PTSUNNY   24   8  50 NW15      30.32F WCI  11
MD SCIENCE CTR   N/A     27   7  42 MISG      30.31R
MARTIN STATE   CLOUDY    27  12  54 NW14      30.34F WCI  15
ANNAPOLIS      FAIR      28  12  51 NW15      30.33F WCI  16
FORT MEADE*    FAIR      27  10  50 N10       30.35F WCI  17

$$

MDZ012-015-019>023-172000-
MARYLAND EASTERN SHORE

CITY           SKY/WX    TMP DP  RH WIND       PRES   REMARKS
OCEAN CITY     CLOUDY    30  24  78 NW12      30.26S WCI  20
SALISBURY      CLOUDY    29  24  82 NW10      30.27S HAZE    WCI  20
BAY BRIDGE AP* FAIR      25  10  54 MISG      30.33F
CAMBRIDGE*     SUNNY     27  12  54 NW20      30.30F WCI  13
EASTON*        PTSUNNY   27  12  54 N15G22    30.34F WCI  15

$$

MDZ017>025-172000-
SOUTHERN MARYLAND

CITY           SKY/WX    TMP DP  RH WIND       PRES   REMARKS
PATUXENT RIVER NOT AVBL
ST INIGOES     CLOUDY    28  16  60 NW9       30.29F WCI  19
LEONARDTOWN*   PTSUNNY   28  12  50 NW8       30.32F WCI  20

$$

MDZ003>005-172000-
NORTH CENTRAL MARYLAND

CITY           SKY/WX    TMP DP  RH WIND       PRES   REMARKS
FREDERICK*     SUNNY     25   3  39 N9G16     30.39R WCI  15
HAGERSTOWN APT FAIR      21   8  57 NW12      30.34F WCI   9
WESTMINSTER*   FAIR      21   9  58 NW8G16    30.29F WCI  12

$$

MDZ501>502-172000-
WESTERN MARYLAND

CITY           SKY/WX    TMP DP  RH WIND       PRES   REMARKS
OAKLAND*       PTSUNNY    5   3  92 NW6       30.19F WCI  -6
CUMBERLAND*    FAIR      28   7  40 N6        30.41F WCI  22

$$

VAZ025>031-172000-
SHENANDOAH VALLEY

CITY           SKY/WX    TMP DP  RH WIND       PRES   REMARKS
WINCHESTER*    FAIR      23   5  46 N9G20     30.36F WCI  13
FRONT ROYAL*   FAIR      23   5  46 NE7       30.33F WCI  15
LURAY*         FAIR      27   9  46 NE5       30.30F WCI  21
NEW MARKET*    CLOUDY    26   4  38 N13G20    30.29F WCI  15
STAUNTON*      CLOUDY    24   8  50 NE12      30.29F WCI  12
WAYNESBORO*    CLOUDY    22   7  52 N9        30.25F WCI  12

$$

WVZ021-048>050-054>055-172000-
EASTERN WEST VIRGINIA PANHANDLE

CITY           SKY/WX    TMP DP  RH WIND       PRES   REMARKS
MARTINSBURG    FAIR      22   5  48 NW10      30.34F WCI  11
PETERSBURG*    FAIR      22   8  54 SE3       30.33F

$$

VAZ036>039-050-172000-
CENTRAL FOOTHILLS

CITY           SKY/WX    TMP DP  RH WIND       PRES   REMARKS
CHARLOTTESVILL CLOUDY    30  10  43 VRB5      30.29F WCI  25
CULPEPER*      FAIR      26   4  38 N15       30.35F WCI  14
ORANGE*        CLOUDY    25   9  50 N12G17    30.32F WCI  14
GORDONSVILLE*  CLOUDY    25  10  53 NE13      30.32R WCI  13
WARRENTON*     PTSUNNY   25   4  39 N14       30.33F WCI  14

$$

VAZ055>057-172000-
NORTH AND CENTRAL PIEDMONT

CITY           SKY/WX    TMP DP  RH WIND       PRES   REMARKS
FREDERICKSBRG* FAIR      26  10  51 N12G21    30.34F WCI  15
STAFFORD*      FAIR      26  10  50 NW16G23   30.38F WCI  14

$$

NCZ024-NYZ072-PAZ021-071-VAZ022-071-172000-
OTHER REGIONAL OBSERVATIONS

CITY           SKY/WX    TMP DP  RH WIND       PRES   REMARKS
NEW YORK CITY  CLOUDY    33  30  88 VRB5      30.20F WCI  29
PHILADELPHIA   CLOUDY    27  16  63 NW15      30.28S WCI  15
PITTSBURGH     PTSUNNY   14   6  70 W7        30.39F WCI   4
ROANOKE        LGT SNOW  23  18  81 NW9       30.28F WCI  13
RICHMOND       LGT SNOW  25  20  81 N18       30.31S WCI  11
RALEIGH        HVY SNOW  32  31  96 NE7       30.20F VSB 1/4 WCI  26

$$

ANZ530>537-172000-
MARINE OBSERVATIONS

STATION/POSITION TIME  TEMP    WIND        PRES
                       AIR SEA DIR/SP/G
                 (UTC) (F)     (DEG/KT/KT) (MB)
THOMAS PT LIGHT  1900   26 31  330/ 13/ 15   N/A
BALT KEY BRIDGE  1836   24     330/ 14/ 17 1027.1F
COVE POINT       1836   26     360/ 10/ 19 1026.9F
LEWISETTA        1842   26 33  340/ 12/ 16 1026.1F
SOLOMONS ISLAND  1836   27 34  350/ 11/ 14 1026.0F
PINEY POINT      1848           10/ 13/ 15   N/A

$$





USA.gov is the U.S. government's official web portal to all federal, state and local government web resources and services.